High Desert Yearling Classic - South Hills

Station: South Hills 10 Miles - T Race

Distance: 10 Miles

Release: 15-Apr-2018 08:30

Weather Release:    Arrival:

Wind at Release:     Wind at Arrival:

Temp at Release: °    Temp at Arrival: °

Lofts: 99

Birds: 446

Clocked: 445

Multiple Groups! No training Monday 4-16 We are getting Snow at the loft!!!
Drops Pos Breeder Pigeon Name Color Sex Ent Arrival Speed To Win Eligible
301 A-Lin Loft - ME 14873-US17-IPB BB H 4 10:20:11.00 159.734 00:54:27 Yes
301 Jimmy Zheng Loft - MS 0687-AU17-JZ BB C 4 10:20:11.00 159.734 00:54:27 Yes
303 Hammon And Friends - AZ 0410-AU17-DWI DC C 9 10:20:14.00 159.661 00:54:30 Yes
303 Pigeon Village - ID 0886-AU17-IDA BC H 2 10:20:14.00 159.661 00:54:30 Yes
305 F & D Lofts - AB 17252-AU17-FD BB H 6 10:20:15.00 159.637 00:54:31 Yes
306 Silver Dollar Loft - CO 0068-AU17-SD BB H 10 10:20:16.00 159.613 00:54:32 Yes
307 Powerstroke Loft - UT 0180-IF17-PS BB H 6 10:20:21.00 159.493 00:54:37 Yes
308 River Lane Loft - UT 16661-IF17-FOYS BBPN C 1 10:20:23.00 159.444 00:54:39 Yes
309 Michael Kelly - CA 1727-AU17-ARC DCWF H 5 10:20:25.00 159.396 00:54:41 Yes
310 Pelican Loft - ID 72762-AU17-ARPU DCWF H 6 10:20:26.00 159.372 00:54:42 Yes
311 " Team No Good " - CA 7370-AU17-PPH “ Gabby’s Choice “ BC H 1 10:20:28.00 159.324 00:54:44 Yes
312 Hammon And Friends - AZ 0567-AU17-DWI BBWF H 10 10:20:30.00 159.276 00:54:46 Yes
313 Warbird Loft - CO 7330-AU17-FH Bzxhii BC C 10 10:20:31.00 159.252 00:54:47 Yes
314 Bert Bruno - UT 36364-AU17-JEDD BC H 9 10:20:32.00 159.228 00:54:48 Yes
315 Warbird Loft - CO 7327-AU17-FH 2wxkanii BC H 11 10:20:40.00 159.036 00:54:56 Yes
316 Vicstrom Loft - UT 46866-AU17-ARPU DCWF H 1 10:20:42.00 158.988 00:54:58 Yes
317 Ray Sackett - ID 0082-AU17-IDA RC H 2 10:20:45.00 158.916 00:55:01 Yes
318 Hollywood Lou Loft - FL 0010-AU17-DC BB C 3 10:20:46.00 158.893 00:55:02 Yes
319 Roberts Family Loft - MA 0182-IF17-NWC BC C 3 10:20:50.00 158.797 00:55:06 Yes
319 Utaz Boys/ Jones - UT 1159-AU17-SLI BC H 3 10:20:50.00 158.797 00:55:06 Yes
321 Stella Loft - TX 44761-AU17-AA PNWF C 4 10:20:52.00 158.749 00:55:08 Yes
322 Pigeon Village - ID 1207-AU17-IDA BB H 3 10:20:55.00 158.678 00:55:11 Yes
323 Chick Clayton - ID 0733-AU17-IDA BBWF H 3 10:20:59.00 158.582 00:55:15 Lost
324 Ray Sackett - ID 0083-AU17-IDA BC C 3 10:21:00.00 158.559 00:55:16 Yes
325 Marian Taloi - OR 11074-AU17-JEDD BC C 12 10:21:05.00 158.440 00:55:21 Yes
325 Racing Pigeon Mall - WA 0719-AU17-RPM BC H 8 10:21:05.00 158.440 00:55:21 Yes
327 Pigeon Village - ID 1222-AU17-IDA BC H 4 10:21:11.00 158.297 00:55:27 Yes
328 Joe Zarachowicz - MD 2264-IF17-CCC GRZ H 4 10:21:18.00 158.131 00:55:34 Lost
329 Ed Kehl - UT 0400-AU17-WFA BCWF H 8 10:21:21.00 158.060 00:55:37 Yes
330 Joe Zarachowicz - MD 2244-IF17-CCC SLT C 5 10:21:22.00 158.037 00:55:38 Yes
331 Ganus Family Loft - IN 0921-AU17-GFL RC C 7 10:21:26.00 157.942 00:55:42 Yes
332 Ganus Family Loft - IN 0920-AU17-GFL RC C 8 10:21:30.00 157.848 00:55:46 Yes
333 Rich Fox Loft - PA 0880-IF17-LVC BC C 3 10:21:43.00 157.541 00:55:59 Yes
334 Jose Rangel - UT 43353-AU17-AA BCWF H 2 10:22:02.00 157.096 00:56:18 Yes
335 Bert Bruno - UT 36361-AU17-JEDD RC C 10 10:24:45.00 153.377 00:59:01 Yes
336 Fly & Criddle - ID 6666-AU17-FOYS 155/1522 BB H 6 10:27:57.00 149.216 01:02:13 Yes
336 Racing Pigeon Mall - WA 0723-AU17-RPM BLK H 9 10:27:57.00 149.216 01:02:13 Yes
338 Dream Team - VT 0429-AU17-JCZL GZSP H 5 10:28:01.00 149.131 01:02:17 Yes
338 Frank Locante - WI 17020-AU17-FRLO BBSP H 4 10:28:01.00 149.131 01:02:17 Yes
340 Rangel/Flores/Fregos - UT 0174-AU17-WFA BC H 4 10:28:05.00 149.047 01:02:21 Lost
341 Warbird Loft - CO 7334-AU17-FH Dukxg BC H 12 10:28:12.00 148.900 01:02:28 Yes
342 Ganus Family Loft - IN 0495-AU17-GFL BC H 9 10:28:15.00 148.837 01:02:31 Lost
343 Haack Loft - CA 2794-AU17-JEDD BBPD H 4 10:28:17.00 148.795 01:02:33 Yes
344 Ordonez Loft - CA 0434-AU17-FMT BB C 3 10:28:19.00 148.753 01:02:35 Yes
345 Papas Loft - ID 20338-AU17-ARPU BB H 5 10:28:20.00 148.732 01:02:36 Yes
346 Doug Donner - CO 13433-AU17-ARPU BCWF C 6 10:28:22.00 148.691 01:02:38 Yes
346 Haack Loft - CA 2771-AU17-JEDD BC H 5 10:28:22.00 148.691 01:02:38 Yes
348 Baldwin & Tilson - NC 7170-AU17-TENT BB C 6 10:28:26.00 148.607 01:02:42 Yes
349 Carlton Kroese-Crazy Al - CO 5169-AU17-CRAZ DC C 4 10:28:28.00 148.565 01:02:44 Yes
350 Eagle Ridge Lofts - WY 17025-AU17-EAGL BB H 6 10:28:56.00 147.982 01:03:12 Yes
351 Sam Haslem - UT 7811-AU17-CDR RC H 7 10:29:04.00 147.816 01:03:20 Yes
352 Rory Smith - UT 7370-AU17-CDR BB H 5 10:29:07.00 147.754 01:03:23 Yes
353 Mario Rodriguez - AZ 15904-AU17-ARPU BCWF C 4 10:29:08.00 147.734 01:03:24 Yes
354 Twin Loft & Joe - MD 41808-AU17-AA BCWF C 2 10:29:11.00 147.672 01:03:27 Yes
355 Haack Loft - CA 2786-AU17-JEDD MLY C 6 10:29:12.00 147.651 01:03:28 Yes
356 Dudley Loft - CO 17137-AU17-PUE BLK H 3 10:29:13.00 147.630 01:03:29 Yes
357 Bieche-Stevenson - CA 7521-AU17-BIEC DCWF C 3 10:29:17.00 147.548 01:03:33 Yes
358 Hammon And Friends - AZ 0409-AU17-DWI BC C 11 10:29:21.00 147.465 01:03:37 Yes
359 " Team No Good " - CA 4116-AU17-JEDD “ Nathan’s Pick “ BB H 2 10:29:27.00 147.342 01:03:43 Yes
360 Richard Callahan - MO 41045-AU17-AA BBWF H 2 10:29:35.00 147.178 01:03:51 Yes
361 Thunder Birds/Rodriguez Breeding Loft - TX 19837-AU17-ARPU Red Mist BC H 3 10:29:50.00 146.871 01:04:06 Lost
362 Danny Lum - HI 7770-AU17-HIC BB C 2 10:31:55.00 144.361 01:06:11 Yes
363 Danny Lum - HI 7755-AU17-HIC BB H 3 11:00:50.00 116.685 01:35:06 Yes
364 Hollywood Lou Loft - FL 0153-AU17-HL BB C 4 11:00:55.00 116.621 01:35:11 Yes
365 Hi-Cal Connection - CA 0752-AU17-HICA BB H 2 11:00:56.00 116.608 01:35:12 Yes
366 Venn Family Loft - WY 87147-AU17-ARPU BB H 3 11:00:57.00 116.595 01:35:13 Yes
367 Rory Smith - UT 7379-AU17-CDR BB H 6 11:00:59.00 116.569 01:35:15 Yes
368 Ed Kehl - UT 0387-AU17-WFA DCBK C 9 11:01:01.00 116.543 01:35:17 Yes
369 El Dorado Loft - TX 0168-AU17-TEX BB C 1 11:01:02.00 116.531 01:35:18 Yes
369 Twin Loft & Joe - MD 71563-IF17-BWI BC H 3 11:01:02.00 116.531 01:35:18 Yes
371 Carlton Kroese-Crazy Al - CO 1283-AU17-HOHC BB H 5 11:01:04.00 116.505 01:35:20 Yes
372 Bert Bruno - UT 11464-IF17-FOYS BC H 11 11:01:51.00 115.904 01:36:07 Yes
373 Ganus Family Loft - IN 0937-AU17-GFL BC H 10 11:01:56.00 115.840 01:36:12 Yes
373 Baldwin & Tilson - NC 7299-AU17-TENT BB H 7 11:01:56.00 115.840 01:36:12 Yes
375 Marian Taloi - OR 0487-AU17-OTC BCSP C 13 11:01:59.00 115.802 01:36:15 Yes
376 Scott/Carol Team - UT 0361-AU17-DWI BB C 5 11:02:02.00 115.764 01:36:18 Yes
377 Rodriguez Loft - TX 17692-AU17-WIN Dark Secret BB C 2 11:02:03.00 115.751 01:36:19 Yes
378 Dave Naylor - BC 1417-CU17-MTNP BC C 4 11:02:05.00 115.726 01:36:21 Yes
379 Danny Lum - HI 7761-AU17-HIC BC H 4 11:02:08.00 115.688 01:36:24 Yes
380 Baldwin & Tilson - NC 7173-AU17-TENT BB H 8 11:02:13.00 115.625 01:36:29 Yes
381 Eagle Ridge Lofts - WY 17034-AU17-EAGL DC H 7 11:04:02.00 114.261 01:38:18 Yes
382 Mc Laughlin Lofts - MA 1234-AU17-MCLO BC C 5 11:04:06.00 114.212 01:38:22 Yes
383 Aimhigh Loft - CA 0096-AU17-FMT AIM-0096 BC H 5 11:04:10.00 114.162 01:38:26 Yes
384 Jimmy Zheng Loft - MS 0688-AU17-JZ BBWF C 5 11:04:12.00 114.137 01:38:28 Yes
384 Racing Pigeon Mall - WA 0720-AU17-RPM BLK H 10 11:04:12.00 114.137 01:38:28 Yes
386 D & L Lofts - BC 1109-CU17-MTNP BBPN H 4 11:04:25.00 113.977 01:38:41 Yes
387 Dave Flanagan - OH 0567-AU17-HOF BB H 3 11:04:41.00 113.781 01:38:57 Yes
388 Roberts Family Loft - MA 0178-IF17-NWC BC H 4 11:04:58.00 113.573 01:39:14 Yes
389 Stella Loft - TX 44765-AU17-AA DCSP H 5 11:05:09.00 113.439 01:39:25 Yes
390 El Dorado Lofts Canada - BC 1198-CU17-MTNP BC C 4 11:05:59.00 112.833 01:40:15 Yes
391 Bert Bruno - UT 36373-AU17-JEDD RC H 12 11:09:11.00 110.564 01:43:27 Yes
392 Bert Bruno - UT 79327-AU17-ARPU RC H 13 11:09:28.00 110.368 01:43:44 Yes
393 Steve Beier - AZ 0415-AU17-IDA BC C 4 11:29:13.00 98.205 02:03:29 Yes
394 Dream Team - VT 0770-AU17-JCZL BC H 6 11:30:15.00 97.642 02:04:31 Yes
395 Warbird Loft - CO 7335-AU17-FH Dukxgii BC C 13 11:30:30.00 97.507 02:04:46 Yes
396 Ray Sackett - ID 0081-AU17-IDA BCSP H 4 11:31:10.00 97.148 02:05:26 Yes
397 Silver Dollar Loft - CO 0001-AU17-SD BB H 11 11:31:19.00 97.068 02:05:35 Yes
398 Michael Kelly - CA 1735-AU17-ARC BB H 6 11:35:11.00 95.041 02:09:27 Yes
399 Arendonk West - CA 26821-AU17-AA BB H 3 11:38:11.00 93.526 02:12:27 Yes
400 Michael Kelly - CA 1737-AU17-ARC DC H 7 11:51:11.00 87.482 02:25:27 Yes

There are 419 bird records

Note: These Race Results are unofficial and subject to change until verified by the Race Committee and declared final.

Click for forecast!